Stations météo

Publicité
Nice, France (7690): Température de l'air & dewpoint: 14.09.2019 05:00:00 - 20.09.2019 05:00:00 (CEST)Nice, France (7690): Température de l'air 5cm: 14.09.2019 05:00:00 - 20.09.2019 05:00:00 (CEST)Nice, France (7690): Température de l'air -20cm & Température de l'air -100cm: 14.09.2019 05:00:00 - 20.09.2019 05:00:00 (CEST)Nice, France (7690): Vitesse du vent & gusts: 14.09.2019 05:00:00 - 20.09.2019 05:00:00 (CEST)Nice, France (7690): Direction du vent: 14.09.2019 05:00:00 - 20.09.2019 05:00:00 (CEST)Nice, France (7690): reduced air pressure: 14.09.2019 05:00:00 - 20.09.2019 05:00:00 (CEST)Nice, France (7690): visibility: 14.09.2019 05:00:00 - 20.09.2019 05:00:00 (CEST)Nice, France (7690): Ensoleillement: 14.09.2019 05:00:00 - 20.09.2019 05:00:00 (CEST)Nice, France (7690): Quantités de précipitations: 14.09.2019 05:00:00 - 20.09.2019 05:00:00 (CEST)
Date & Time tt [°C] td [°C] tt 5cm [°C] tt -20cm [°C] tt -100cm [°C] ff [km/h] ff [knt] fx [km/h] fx [knt] dd ppp [hPa] vv [km] sd [min] rr [mm]
20.09.2019 05:00:00 21,0 15,3 19,9 25,2 25,4 6 4 13 7 NNW 1020,2 30 0 0,0
20.09.2019 04:00:00 20,6 15,6 19,9 25,2 25,3 10 5 18 10 NNW 1020,0 30 0 0,0
20.09.2019 03:00:00 21,0 15,5 20,4 25,2 25,3 13 7 18 10 NNW 1020,0 30 0 0,0
20.09.2019 02:00:00 21,4 15,9 20,9 25,2 25,3 12 7 18 10 NNW 1020,1 30 0 0,0
20.09.2019 01:00:00 21,9 16,4 21,2 25,2 25,4 10 5 14 7 NNW 1019,9 30 0 0,0
20.09.2019 00:00:00 22,1 16,6 21,4 25,2 25,4 11 6 19 10 NNW 1019,6 30 0 0,0
19.09.2019 23:00:00 22,7 17,6 21,9 25,2 25,4 8 4 16 9 NNW 1019,4 30 0 0,0
19.09.2019 22:00:00 22,9 18,7 22,2 25,2 25,4 8 5 13 7 WNW 1018,8 30 0 0,0
19.09.2019 21:00:00 23,4 18,9 22,7 25,2 25,4 5 3 10 6 WSW 1018,2 30 0 0,0
19.09.2019 20:00:00 23,7 18,8 23,0 25,2 25,4 7 4 11 6 SW 1017,2 18 0 0,0
19.09.2019 19:00:00 24,0 18,6 24,4 25,2 25,4 4 2 12 6 S 1017,0 30 0 0,0
19.09.2019 18:00:00 24,3 18,5 25,8 25,2 25,4 9 5 13 7 SSE 1016,7 20 0 0,0
19.09.2019 17:00:00 25,1 19,7 28,9 25,2 25,4 10 5 13 7 S 1016,4 20 29 0,0
19.09.2019 16:00:00 25,4 19,1 31,6 25,2 25,4 6 3 10 5 S 1016,6 20 56 0,0
19.09.2019 15:00:00 25,8 19,7 30,1 25,2 25,4 8 4 11 6 SSE 1016,9 20 55 0,0
19.09.2019 14:00:00 25,2 20,0 30,5 25,2 25,4 9 5 13 7 SSE 1016,8 20 56 0,0
19.09.2019 13:00:00 25,6 20,4 31,2 25,2 25,4 9 5 13 7 SSE 1017,1 20 60 0,0
19.09.2019 12:00:00 25,0 19,8 27,7 25,2 25,4 9 5 11 6 ESE 1017,2 20 30 0,0
19.09.2019 11:00:00 24,9 18,1 29,1 25,2 25,4 7 4 9 5 SE 1017,0 30 57 0,0
19.09.2019 10:00:00 24,2 17,0 23,9 25,2 25,4 4 2 11 6 N 1016,7 30 25 0,0
19.09.2019 09:00:00 22,2 16,5 21,3 25,2 25,4 9 5 16 9 NNW 1016,4 30 12 0,0
19.09.2019 08:00:00 21,1 16,5 21,0 25,2 25,4 12 6 21 12 NNW 1015,7 30 0 0,0
19.09.2019 07:00:00 21,3 17,1 20,1 25,2 25,4 11 6 17 9 NW 1015,3 30 0 0,0
19.09.2019 06:00:00 21,0 16,8 19,7 25,2 25,4 8 4 13 7 NNW 1015,1 30 0 0,0
19.09.2019 05:00:00 21,2 16,8 20,3 25,2 25,4 11 6 15 8 NW 1014,9 20 0 0,0
19.09.2019 04:00:00 21,4 18,0 20,8 25,2 25,4 12 6 15 8 NNW 1015,1 20 0 0,0
19.09.2019 03:00:00 22,0 18,6 21,0 25,2 25,4 6 4 10 6 NW 1015,5 20 0 0,0
19.09.2019 02:00:00 22,2 18,6 21,3 25,2 25,4 6 3 11 6 NNE 1015,7 20 0 0,0
19.09.2019 01:00:00 22,4 19,0 21,8 25,2 25,4 5 3 8 4 NNW 1015,9 20 0 0,0
19.09.2019 00:00:00 22,3 19,3 21,5 25,2 25,4 6 4 11 6 WNW 1016,0 20 0 0,0
18.09.2019 23:00:00 22,0 19,0 21,7 25,2 25,4 6 4 9 5 W 1016,1 20 0 0,0
18.09.2019 22:00:00 23,1 19,5 22,2 25,1 25,4 4 2 6 3 ENE 1015,6 20 0 0,0
18.09.2019 21:00:00 23,2 19,6 22,3 25,2 25,4 3 2 6 3 ESE 1015,5 20 0 0,0
18.09.2019 20:00:00 23,3 19,5 22,5 25,1 25,4 0 0 7 4 N 1015,2 20 0 0,0
18.09.2019 19:00:00 23,7 19,6 24,0 25,2 25,4 3 2 10 5 SSE 1015,1 20 0 0,0
18.09.2019 18:00:00 24,1 19,4 24,9 25,1 25,4 6 4 12 7 ESE 1015,3 20 0 0,0
18.09.2019 17:00:00 24,5 19,1 27,1 25,2 25,4 9 5 14 7 ESE 1015,0 20 32 0,0
18.09.2019 16:00:00 24,6 19,7 26,5 25,2 25,4 11 6 15 8 ESE 1015,4 20 20 0,0
18.09.2019 15:00:00 25,2 19,3 29,7 25,2 25,4 10 5 16 9 ESE 1015,5 20 60 0,0
18.09.2019 14:00:00 25,0 19,6 28,1 25,1 25,4 12 7 19 10 ESE 1015,7 20 48 0,0
18.09.2019 13:00:00 24,9 19,7 28,2 25,2 25,4 15 8 22 12 ESE 1015,7 20 43 0,0
18.09.2019 12:00:00 24,8 20,1 27,8 25,2 25,4 18 10 26 14 E 1015,8 20 47 0,0
18.09.2019 11:00:00 24,8 20,1 24,9 25,2 25,4 22 12 28 15 E 1015,5 20 28 0,0
18.09.2019 10:00:00 23,7 19,8 24,7 25,2 25,4 23 12 28 15 E 1015,4 20 29 0,0
18.09.2019 09:00:00 23,5 19,8 23,7 25,1 25,4 21 11 26 14 E 1014,6 20 20 0,0
18.09.2019 08:00:00 23,3 20,1 23,1 25,1 25,4 21 11 25 14 E 1014,1 20 26 0,0
18.09.2019 07:00:00 23,3 19,7 22,9 25,1 25,4 14 7 18 10 E 1013,9 20 0 0,0
18.09.2019 06:00:00 23,2 19,8 22,4 25,1 25,5 10 5 13 7 E 1014,0 20 0 0,0
18.09.2019 05:00:00 23,0 19,4 22,3 25,2 25,5 10 5 13 7 E 1014,1 30 0 0,0
18.09.2019 04:00:00 23,1 19,5 22,6 25,1 25,4 11 6 15 8 ENE 1014,3 30 0 0,0
18.09.2019 03:00:00 23,3 20,1 23,2 25,1 25,5 13 7 18 10 E 1014,7 30 0 0,0
18.09.2019 02:00:00 23,5 20,0 23,4 25,1 25,5 12 6 15 8 E 1014,9 24 0 0,0
18.09.2019 01:00:00 23,5 19,8 23,5 25,1 25,4 9 5 15 8 ESE 1014,9 30 0 0,0
18.09.2019 00:00:00 23,6 19,9 23,5 25,1 25,5 12 7 16 9 E 1014,4 30 0 0,0
17.09.2019 23:00:00 23,6 19,9 23,3 25,1 25,5 9 5 12 7 E 1014,4 30 0 0,0
17.09.2019 22:00:00 23,6 19,7 23,4 25,1 25,5 8 4 10 6 E 1014,5 30 0 0,0
17.09.2019 21:00:00 23,6 19,7 23,6 25,1 25,5 6 3 10 5 E 1014,7 30 0 0,0
17.09.2019 20:00:00 23,7 19,8 23,5 25,1 25,5 8 4 11 6 ESE 1014,4 30 0 0,0
17.09.2019 19:00:00 23,6 19,5 23,8 25,1 25,5 8 4 14 8 ESE 1014,4 30 19 0,0
17.09.2019 18:00:00 24,3 20,0 27,3 25,1 25,5 11 6 16 9 ESE 1014,4 30 60 0,0
17.09.2019 17:00:00 24,9 20,6 28,9 25,1 25,5 11 6 14 8 ESE 1014,5 30 60 0,0
17.09.2019 16:00:00 25,0 20,3 30,5 25,1 25,5 9 5 14 8 ESE 1015,2 30 60 0,0
17.09.2019 15:00:00 25,1 19,9 30,3 25,1 25,5 10 6 16 9 ESE 1015,6 32 60 0,0
17.09.2019 14:00:00 24,9 19,9 30,3 25,1 25,5 13 7 17 9 E 1016,0 30 60 0,0
17.09.2019 13:00:00 24,9 20,2 29,8 25,1 25,5 15 8 23 12 E 1016,5 30 60 0,0
17.09.2019 12:00:00 24,7 20,2 28,9 25,1 25,5 20 11 23 13 E 1016,8 30 60 0,0
17.09.2019 11:00:00 24,2 19,5 28,8 25,2 25,5 18 10 22 12 E 1016,7 30 60 0,0
17.09.2019 10:00:00 23,8 16,6 23,0 25,2 25,5 5 3 18 10 NNE 1016,6 30 52 0,0
17.09.2019 09:00:00 21,3 15,6 20,1 25,1 25,5 12 7 21 11 NNW 1016,3 30 31 0,0
17.09.2019 08:00:00 19,8 15,2 19,3 25,2 25,5 16 8 21 11 NNW 1016,4 30 2 0,0
17.09.2019 07:00:00 19,9 15,5 19,3 25,2 25,5 13 7 17 9 NNW 1016,2 30 0 0,0
17.09.2019 06:00:00 20,0 15,4 19,5 25,1 25,5 14 7 17 9 NW 1016,1 30 0 0,0
17.09.2019 05:00:00 20,2 15,4 19,7 25,1 25,5 13 7 16 8 NW 1016,0 30 0 0,0
17.09.2019 04:00:00 20,7 15,7 20,2 25,1 25,5 11 6 15 8 NNW 1016,2 30 0 0,0
17.09.2019 03:00:00 20,9 15,7 20,2 25,1 25,5 12 6 16 8 NNW 1016,6 30 0 0,0
17.09.2019 02:00:00 21,1 15,9 20,5 25,1 25,5 11 6 13 7 NW 1016,9 30 0 0,0
17.09.2019 01:00:00 21,7 16,2 20,9 25,1 25,5 9 5 10 5 NNW 1017,2 30 0 0,0
17.09.2019 00:00:00 22,1 16,1 21,4 25,1 25,5 8 4 9 5 NNW 1017,5 30 0 0,0
16.09.2019 23:00:00 22,7 18,5 21,4 25,1 25,5 6 3 8 5 NW 1017,4 30 0 0,0
16.09.2019 22:00:00 23,1 20,4 21,9 25,1 25,6 2 1 6 3 S 1017,5 30 0 0,0
16.09.2019 21:00:00 23,6 20,1 23,1 25,1 25,6 6 4 10 5 SSW 1017,5 30 0 0,0
16.09.2019 20:00:00 24,0 19,7 23,5 25,1 25,5 6 4 10 5 S 1017,4 30 19 0,0
16.09.2019 19:00:00 24,6 19,4 26,1 25,1 25,6 9 5 16 8 S 1017,2 40 60 0,0
16.09.2019 18:00:00 25,2 19,1 29,8 25,1 25,5 9 5 14 8 S 1017,4 40 60 0,0
16.09.2019 17:00:00 25,8 19,4 32,7 25,1 25,6 9 5 13 7 S 1017,6 40 60 0,0
16.09.2019 16:00:00 26,2 19,3 32,2 25,2 25,6 10 6 14 8 SSE 1017,9 40 60 0,0
16.09.2019 15:00:00 26,8 17,6 33,4 25,2 25,6 11 6 18 10 S 1018,3 40 60 0,0
16.09.2019 14:00:00 26,7 17,5 33,3 25,2 25,6 13 7 16 9 S 1018,7 19 60 0,0
16.09.2019 13:00:00 26,1 16,9 33,6 25,2 25,6 13 7 16 8 S 1019,3 40 60 0,0
16.09.2019 12:00:00 26,1 16,4 32,2 25,2 25,6 11 6 16 9 S 1019,7 40 60 0,0
16.09.2019 11:00:00 26,0 14,8 29,6 25,2 25,6 8 4 20 11 SE 1020,1 40 60 0,0
16.09.2019 10:00:00 24,7 15,1 26,4 25,2 25,6 12 6 17 9 NNW 1020,2 40 60 0,0
16.09.2019 09:00:00 22,8 14,9 22,7 25,2 25,6 11 6 19 10 NNW 1020,0 40 60 0,0
16.09.2019 08:00:00 21,3 14,5 20,6 25,2 25,6 10 5 23 13 NNW 1020,0 40 28 0,0
16.09.2019 07:00:00 21,1 14,5 20,5 25,2 25,6 11 6 19 10 NNW 1019,8 40 0 0,0
16.09.2019 06:00:00 21,5 14,4 20,8 25,2 25,6 14 7 23 12 NNW 1019,7 40 0 0,0
16.09.2019 05:00:00 21,9 14,5 20,9 25,2 25,6 18 10 23 12 NNW 1020,0 40 0 0,0
16.09.2019 04:00:00 21,4 14,5 20,9 25,2 25,7 14 8 18 10 NW 1020,5 40 0 0,0
16.09.2019 03:00:00 21,6 14,5 20,7 25,2 25,7 11 6 16 9 NNW 1020,9 40 0 0,0
16.09.2019 02:00:00 21,4 14,5 20,4 25,2 25,6 11 6 14 7 NNW 1021,3 40 0 0,0
16.09.2019 01:00:00 21,7 14,8 20,4 25,2 25,6 11 6 18 10 NNW 1021,5 40 0 0,0
16.09.2019 00:00:00 21,8 15,2 20,6 25,2 25,6 11 6 16 8 NW 1021,4 40 0 0,0
15.09.2019 23:00:00 22,7 15,8 21,4 25,2 25,6 8 5 11 6 NNW 1021,4 40 0 0,0
15.09.2019 22:00:00 23,2 18,7 21,8 25,2 25,6 3 1 8 5 NNE 1021,4 30 0 0,0
15.09.2019 21:00:00 23,9 19,2 22,7 25,2 25,6 4 2 6 4 E 1021,3 30 0 0,0
15.09.2019 20:00:00 24,2 19,1 23,3 25,2 25,6 4 2 5 3 ESE 1021,4 30 21 0,0
15.09.2019 19:00:00 24,8 18,7 25,8 25,2 25,7 4 2 10 5 S 1021,8 40 18 0,0
15.09.2019 18:00:00 25,8 18,5 29,2 25,2 25,7 9 5 14 8 S 1022,1 40 60 0,0
15.09.2019 17:00:00 26,3 18,7 29,1 25,2 25,7 8 4 10 5 SSE 1022,5 40 36 0,0
15.09.2019 16:00:00 26,0 19,4 29,1 25,2 25,6 9 5 13 7 E 1023,0 40 0 0,0
15.09.2019 15:00:00 25,8 19,7 29,9 25,2 25,7 9 5 20 11 E 1023,6 40 39 0,0
15.09.2019 14:00:00 26,0 19,6 30,0 25,2 25,7 15 8 19 10 E 1023,9 40 52 0,0
15.09.2019 13:00:00 26,5 18,6 31,7 25,3 25,7 6 3 12 6 ESE 1024,3 40 60 0,0
15.09.2019 12:00:00 26,4 18,0 31,9 25,3 25,7 9 5 11 6 ESE 1024,6 40 60 0,0
15.09.2019 11:00:00 26,9 15,9 30,4 25,3 25,7 5 3 16 8 E 1024,5 40 60 0,0
15.09.2019 10:00:00 26,0 14,8 25,5 25,3 25,7 10 5 25 13 NNE 1024,5 41 60 0,0
15.09.2019 09:00:00 23,2 13,7 22,6 25,3 25,7 20 11 28 15 NNW 1024,5 40 53 0,0
15.09.2019 08:00:00 22,2 13,5 - - - 15 8 28 15 NNW 1024,5 40 - -
15.09.2019 07:00:00 22,1 13,2 21,4 25,3 25,7 19 10 27 15 NNW 1023,9 40 0 0,0
15.09.2019 06:00:00 22,6 13,4 21,8 25,3 25,7 15 8 32 17 NNW 1023,3 40 0 0,0
15.09.2019 05:00:00 22,5 13,6 21,4 25,2 25,7 21 11 29 16 NNW 1023,9 40 0 0,0
15.09.2019 04:00:00 22,7 13,7 21,7 25,2 25,7 14 8 18 10 NNW 1024,4 40 0 0,0
15.09.2019 03:00:00 23,0 13,7 22,2 25,3 25,7 13 7 21 11 NNW 1024,4 40 0 0,0
15.09.2019 02:00:00 23,4 13,8 22,5 25,2 25,7 15 8 21 11 NNW 1024,6 40 0 0,0
15.09.2019 01:00:00 23,5 14,2 22,7 25,2 25,7 16 9 22 12 NNW 1024,4 40 0 0,0
15.09.2019 00:00:00 23,6 14,3 22,6 25,2 25,7 15 8 22 12 NNW 1024,7 40 0 0,0
14.09.2019 23:00:00 23,6 14,0 23,0 25,2 25,7 17 9 22 12 NNW 1025,0 40 0 0,0
14.09.2019 22:00:00 24,2 14,3 23,2 25,2 25,7 11 6 18 10 N 1025,3 40 0 0,0
14.09.2019 21:00:00 24,8 14,6 22,7 25,2 25,8 12 7 16 9 NW 1025,3 40 0 0,0
14.09.2019 20:00:00 24,7 15,6 23,6 25,2 25,7 7 4 12 6 W 1025,0 40 0 0,0
14.09.2019 19:00:00 25,9 13,7 25,8 25,2 25,8 6 4 8 4 SSW 1024,7 40 0 0,0
14.09.2019 18:00:00 26,2 14,0 27,3 25,2 25,7 2 1 6 3 SE 1024,9 40 6 0,0
14.09.2019 17:00:00 26,5 16,7 29,4 25,3 25,8 3 1 9 5 E 1025,0 30 10 0,0
14.09.2019 16:00:00 27,0 18,0 31,3 25,3 25,8 7 4 15 8 ESE 1025,8 20 55 0,0
14.09.2019 15:00:00 27,1 18,1 32,1 25,3 25,8 12 7 21 11 E 1026,0 30 60 0,0
14.09.2019 14:00:00 27,1 17,8 32,1 25,3 25,8 15 8 19 10 E 1026,6 30 60 0,0
14.09.2019 13:00:00 26,4 19,8 31,3 25,3 25,8 12 7 18 10 E 1026,6 30 60 0,0
14.09.2019 12:00:00 25,8 19,2 30,2 25,3 25,8 8 5 17 9 E 1026,7 30 60 0,0
14.09.2019 11:00:00 25,7 20,5 30,3 25,3 25,8 15 8 19 10 E 1026,8 30 60 0,0
14.09.2019 10:00:00 26,8 13,9 27,3 25,3 25,8 14 8 20 11 NNE 1026,8 40 60 0,0
14.09.2019 09:00:00 23,8 13,9 23,2 25,3 25,8 14 8 33 18 NNW 1026,9 40 60 0,0
14.09.2019 08:00:00 21,8 13,4 20,9 25,3 25,8 23 13 31 17 NNW 1026,9 40 30 0,0
14.09.2019 07:00:00 21,8 13,4 20,9 25,3 25,8 16 9 26 14 NNW 1026,8 50 0 0,0
14.09.2019 06:00:00 21,9 13,5 21,2 25,3 25,9 15 8 26 14 NNW 1026,4 50 0 0,0
14.09.2019 05:00:00 22,1 13,4 21,2 25,3 25,8 21 11 27 15 NNW 1026,2 50 0 0,0

tt = Température de l'air
td = dewpoint
tt 5cm = Température de l'air 5cm
tt -20cm = Température de l'air -20cm
tt -100cm = Température de l'air -100cm
ff = Vitesse du vent
fx = gusts
dd = Direction du vent
ppp = reduced air pressure
vv = visibility
sd = Ensoleillement
rr = Quantités de précipitations

stations d'obs. à proximité